Starlink 32865

operational
NORAD ID: 62952 Int'l Des: 2025-029 Owner: SPXS Country: US Constellation: starlink
LEOCIRCULAR

About Starlink 32865

Description loading...

Live Position

Loading 3D Globe...

Upcoming Passes

Altitude History

Altitude vs Time

uPlot chart will show altitude changes over time

Two-Line Element Set

1 62952U 25029E 25305.96870505 .00030584 00000-0 10402-2 0 9996
2 62952 53.1606 105.6573 0000262 246.9286 113.1687 15.30210293 41773
Epoch: Nov 1, 2025 • Age: 31 hours

Current Status

Altitude 493.3 km
Velocity 7.62 km/s
Sub-Earth Point -53.25°S, 122.58°W
Launch Date Feb 11, 2025
Age 0.7 years
Type internet

Technical Details

Classification Payload
Mass 730.00 kg
Dry Mass 700.00 kg
Total Mass 730.00 kg
Length 0.30 m
Diameter 4.10 m
Span 29.00 m
Shape Box + pan
Manufacturer SPXS
Bus Type Starlink V2M
Phase Status In Orbit
Owner/State SPXS/US

Large Constellations

Loading constellations...